Regional Weather Roundup
Issued by NWS

Home | Current Version | Previous Version | Text Only | Print | Product List | Glossary On
Versions: 1 2 3 4 5 6 7 8 9 10 11 12 13 14 15 16 17 18 19 20 21 22 23 24 25 26 27 28 29 30 31 32 33 34 35 36 37 38 39 40 41 42 43 44 45 46 47 48 49 50
742
ASUS42 KKEY 041610
RWRKEY

FLORIDA REGIONAL WEATHER ROUNDUP FOR THE FLORIDA KEYS
NATIONAL WEATHER SERVICE KEY WEST FLORIDA
1100 AM EST SUN DEC 04 2016

...SOUTH FLORIDA AND THE KEYS...

CITY           SKY/WX    TMP DP  RH WIND       PRES   REMARKS
FORT MYERS     SUNNY     82  67  60 E14G20    30.07F
SW REGIONAL AP MOSUNNY   80  66  62 E14       30.07F
NAPLES         MOSUNNY   81  67  62 E10       30.06F
MIAMI          PTSUNNY   79  68  69 E15       30.09S
WEST KENDALL   MOSUNNY   81  68  64 E18G24    30.08S
HOMESTEAD      SUNNY     80  70  73 E15       30.07F
MARATHON       MOSUNNY   83  71  67 E12G18    30.05S
BOCA CHICA NAS MOSUNNY   82  72  71 E16       30.04S
KEY WEST INTL  SUNNY     82  74  76 E14       30.05S

...INTERNATIONAL WEATHER...

CITY           SKY/WX    TMP DP  RH WIND       PRES   REMARKS
NASSAU BAHAMAS PTSUNNY   79  68  69 E8        30.09S
CANCUN MEXICO  CLOUDY    81  77  89 E7        29.95R
COZUMEL MEXICO PTSUNNY   81  77  89 E9        29.91R

ADJACENT COASTAL WATERS...

STATION/POSITION TIME  SKY/WX   TEMP    WIND        PRES    WAVE
                                AIR SEA DIR/SP/G            HT/PER
                 (UTC)          (F)     (DEG/KT/KT) (MB)    (FT/S)
PULASKI SHOAL LI 1600            77     100/ 15/ 17 1016.9F
SAND KEY         1550            79     110/ 18/ 20 1017.7R
LONG KEY         1500            78 77   90/ 15/ 17 1018.2R
FOWEY ROCKS      1500            76 78   90/ 19/ 20 1019.4R

$$




USA.gov is the U.S. government's official web portal to all federal, state and local government web resources and services.